Location: Quaker Farms
(41.4276°N, 73.1557°W)
Time: 21:05:54
(UTC+00:00)

Transit 2A Rocket - Visible Passes

Search period start: 13 June 2021 00:00
Search period end: 23 June 2021 00:00
Orbit: 592 x 910 km, 66.7° (Epoch: 12 June)

Date Brightness Start Highest point End Pass type
(mag) Time Alt. Az. Time Alt. Az. Time Alt. Az.
13 Jun 4.9 06:29:44 46° SE 06:30:17 50° ESE 06:34:30 10° NE visible
13 Jun 6.5 08:10:05 10° W 08:13:07 18° NW 08:16:13 10° N visible
14 Jun 6.0 05:48:10 25° ESE 05:48:10 25° ESE 05:51:26 10° NE visible
14 Jun 5.8 07:28:03 20° W 07:30:14 30° NW 07:34:09 10° NNE visible
15 Jun 6.9 05:06:33 12° E 05:06:33 12° E 05:07:37 10° ENE visible
15 Jun 4.8 06:46:26 43° WSW 06:47:28 55° WNW 06:51:48 10° NNE visible
16 Jun 4.3 06:04:46 77° SE 06:04:51 78° ESE 06:09:14 10° NNE visible
16 Jun 6.9 07:45:46 10° WNW 07:47:59 14° NW 07:50:15 10° N visible
17 Jun 5.5 05:23:05 36° E 05:23:05 36° E 05:26:24 10° NE visible
17 Jun 6.4 07:02:58 16° W 07:05:00 22° NW 07:08:29 10° N visible
18 Jun 6.5 04:41:21 18° E 04:41:21 18° E 04:43:09 10° ENE visible
18 Jun 5.5 06:21:14 33° W 06:22:10 37° NW 06:26:17 10° NNE visible
19 Jun 4.6 05:39:28 70° WNW 05:39:28 70° WNW 05:43:52 10° NNE visible
19 Jun 7.3 07:22:32 10° NW 07:22:55 10° NW 07:23:18 10° NNW visible
20 Jun 5.0 04:57:39 50° ENE 04:57:39 50° ENE 05:01:12 10° NE visible
20 Jun 6.8 06:37:32 11° WNW 06:39:51 16° NW 06:42:40 10° N visible
21 Jun 6.0 04:15:48 25° ENE 04:15:48 25° ENE 04:18:15 10° NE visible
21 Jun 6.1 05:55:40 23° WNW 05:56:55 26° NW 06:00:41 10° N visible
22 Jun 6.8 03:33:55 13° ENE 03:33:55 13° ENE 03:34:46 10° ENE visible
22 Jun 5.2 05:13:47 45° WNW 05:14:07 46° NW 05:18:24 10° NNE visible
